DW9686 Weather Reports


time (UTC)temp
F
wind
direction
speed
knots
gust
knots
rain 1hr
in
rain 24hr
in
rain mn
in
humidity
%
barometer
mb
20260509160037 59 0 0.0 3.5 0.00 0.00 0.00 69 1021.3
20260509154532 58 123 1.7 6.1 0.00 0.00 0.00 73 1021.3
20260509153042 57 111 1.7 3.5 0.00 0.00 0.00 75 1021.4
20260509151531 56 109 0.9 2.6 0.00 0.00 0.00 77 1021.2
20260509150040 54 110 1.7 3.5 0.00 0.00 0.00 79 1021.3
20260509144548 53 109 1.7 5.2 0.00 0.00 0.00 79 1021.1
20260509143034 52 109 0.9 5.2 0.00 0.00 0.00 80 1021.0
20260509141534 51 101 1.7 2.6 0.00 0.00 0.00 81 1020.9
20260509140033 50 101 0.0 5.2 0.00 0.00 0.00 81 1020.8
20260509134550 50 90 1.7 3.5 0.00 0.00 0.00 81 1020.6
20260509133037 49 0 0.0 3.5 0.00 0.00 0.00 82 1020.5
20260509131537 48 84 1.7 6.1 0.00 0.00 0.00 81 1020.2
20260509130046 48 0 0.0 0.0 0.00 0.00 0.00 81 1020.1
20260509124535 47 0 0.9 3.5 0.00 0.00 0.00 83 1020.0
20260509123033 46 0 0.0 0.0 0.00 0.00 0.00 81 1020.1
20260509121542 47 0 0.0 0.0 0.00 0.00 0.00 80 1019.9
20260509120033 48 0 0.0 0.0 0.00 0.00 0.00 78 1019.9
20260509114537 49 0 0.0 2.6 0.00 0.00 0.00 78 1019.9
20260509113036 49 272 2.6 5.2 0.00 0.00 0.00 77 1019.9
20260509111531 50 272 2.6 5.2 0.00 0.00 0.00 73 1019.8
20260509110034 51 272 2.6 5.2 0.00 0.00 0.00 71 1019.8
20260509104540 50 272 1.7 3.5 0.00 0.00 0.00 70 1019.8
20260509103032 52 272 3.5 6.1 0.00 0.00 0.00 67 1019.6
20260509101546 53 273 2.6 6.1 0.00 0.00 0.00 63 1019.5
20260509100035 54 273 6.1 9.6 0.00 0.00 0.00 62 1019.3
20260509094538 52 267 5.2 8.7 0.00 0.00 0.00 65 1019.4
20260509093033 53 267 3.5 10.4 0.00 0.00 0.00 64 1019.4
20260509091540 54 281 6.1 9.6 0.00 0.00 0.00 61 1019.2
20260509090038 52 255 5.2 7.0 0.00 0.00 0.00 67 1019.3
20260509084537 54 257 5.2 10.4 0.00 0.00 0.00 65 1019.2
20260509083036 54 250 4.3 8.7 0.00 0.00 0.00 62 1018.9
20260509081539 56 258 4.3 9.6 0.00 0.00 0.00 57 1018.8
20260509080036 57 279 7.8 13.0 0.00 0.00 0.00 52 1018.5
20260509074541 58 286 8.7 14.8 0.00 0.00 0.00 51 1018.7
20260509073033 58 269 10.4 17.4 0.00 0.00 0.00 50 1018.2
20260509071532 58 283 7.8 10.4 0.00 0.00 0.00 49 1018.4
20260509070039 58 286 7.8 15.6 0.00 0.00 0.00 47 1018.1
20260509064542 59 274 7.8 12.2 0.00 0.00 0.00 45 1017.8
20260509063033 59 309 6.1 13.9 0.00 0.00 0.00 43 1018.0
20260509061532 60 305 7.0 13.9 0.00 0.00 0.00 43 1017.4
20260509060036 60 313 7.0 16.5 0.00 0.00 0.00 42 1017.5
20260509054540 60 308 8.7 16.5 0.00 0.00 0.00 43 1016.9
20260509053035 60 302 9.6 13.9 0.00 0.00 0.00 42 1016.8
20260509051538 60 327 7.8 13.9 0.00 0.00 0.00 41 1016.8
20260509050037 61 291 9.6 16.5 0.00 0.00 0.00 40 1016.6
20260509044533 62 300 8.7 14.8 0.00 0.00 0.00 37 1016.8
20260509043034 63 329 11.3 17.4 0.00 0.00 0.00 35 1016.5
20260509041600 63 283 9.6 19.1 0.00 0.00 0.00 35 1016.3
20260509040032 64 300 9.6 14.8 0.00 0.00 0.00 33 1015.9
20260509034534 65 290 10.4 19.1 0.00 0.00 0.00 31 1015.6
20260509033030 65 305 10.4 18.2 0.00 0.00 0.00 32 1015.4
20260509031536 67 309 11.3 17.4 0.00 0.00 0.00 30 1015.1
20260509030032 68 287 7.8 13.0 0.00 0.00 0.00 30 1014.9
20260509024550 69 298 10.4 16.5 0.00 0.00 0.00 27 1014.5
20260509023032 70 293 11.3 19.1 0.00 0.00 0.00 25 1014.5
20260509021535 71 297 10.4 16.5 0.00 0.00 0.00 25 1014.2
20260509020044 72 282 10.4 15.6 0.00 0.00 0.00 24 1014.1
20260509014533 74 298 7.8 14.8 0.00 0.00 0.00 25 1014.0
20260509013040 74 295 7.8 13.9 0.00 0.00 0.00 25 1014.0
20260509011530 75 303 10.4 14.8 0.00 0.00 0.00 25 1013.9
20260509010031 76 309 7.8 13.0 0.00 0.00 0.00 28 1013.9
20260509004535 76 309 9.6 13.9 0.00 0.00 0.00 27 1013.7
20260509003034 77 329 8.7 13.9 0.00 0.00 0.00 27 1013.6
20260509001532 77 306 8.7 14.8 0.00 0.00 0.00 24 1013.6
20260509000030 77 323 5.2 15.6 0.00 0.00 0.00 29 1013.3
20260508234532 75 243 6.1 14.8 0.00 0.00 0.00 33 1013.3
20260508233032 75 221 6.1 11.3 0.00 0.00 0.00 34 1013.5
20260508231533 74 223 8.7 13.9 0.00 0.00 0.00 36 1013.4
20260508230040 74 233 8.7 13.9 0.00 0.00 0.00 37 1013.6
20260508224532 74 211 7.0 14.8 0.00 0.00 0.00 44 1013.7
20260508223032 74 211 6.1 12.2 0.00 0.00 0.00 44 1013.8
20260508221530 74 223 7.8 14.8 0.00 0.00 0.00 41 1013.8
20260508220033 74 233 8.7 14.8 0.00 0.00 0.00 39 1013.8
20260508214535 73 220 7.0 11.3 0.00 0.00 0.00 41 1014.0
20260508213039 73 218 6.1 12.2 0.00 0.00 0.00 41 1014.0
20260508211538 70 202 6.1 9.6 0.00 0.00 0.00 47 1014.0
20260508210030 69 227 4.3 9.6 0.00 0.00 0.00 51 1014.2
20260508204538 70 225 4.3 7.8 0.00 0.00 0.00 43 1014.2
20260508203038 70 220 5.2 8.7 0.00 0.00 0.00 42 1014.2
20260508201536 69 209 5.2 7.8 0.00 0.00 0.00 47 1014.2
20260508200033 69 212 4.3 12.2 0.00 0.00 0.00 48 1014.4
20260508194536 71 240 4.3 10.4 0.00 0.00 0.00 43 1014.3
20260508193035 70 214 5.2 9.6 0.00 0.00 0.00 42 1014.3
20260508191534 69 223 5.2 10.4 0.00 0.00 0.00 47 1014.5
20260508190032 68 199 4.3 9.6 0.00 0.00 0.00 53 1014.6
20260508184533 68 239 5.2 10.4 0.00 0.00 0.00 49 1014.9
20260508183034 68 190 5.2 10.4 0.00 0.00 0.00 46 1014.8
20260508181543 66 226 5.2 8.7 0.00 0.00 0.00 49 1014.9
20260508180036 65 211 4.3 7.0 0.00 0.00 0.00 56 1014.9
20260508174532 63 203 2.6 6.1 0.00 0.00 0.00 63 1014.9
20260508173032 63 202 2.6 6.1 0.00 0.00 0.00 62 1015.1
20260508171531 62 202 4.3 7.0 0.00 0.00 0.00 60 1015.0
20260508170031 62 200 4.3 8.7 0.00 0.00 0.00 63 1014.8
20260508164530 61 210 4.3 8.7 0.00 0.00 0.00 64 1014.9
20260508163030 61 210 6.1 9.6 0.00 0.00 0.00 62 1014.8
20260508161532 60 166 5.2 7.8 0.00 0.00 0.00 66 1014.6